Weather in Lampang

Thailand     18°17′06″N   99°30′32″E
temp.,
°C
wind,
m/s
gust,
m/s
humid.,
%
clouds,
%
prec.,
mm/h
press.,
hPa
HPBL,
m
23 april, fri
fri2301:00+28ssw11538 0.0 100619
04:00+27wsw11619 0.0 100512
07:00+27s11624 0.0 100798
10:00+34ssw224411 0.0 10081245
13:00+39sse22295 0.0 10052774
16:00+39sse122483 0.0 10012086
19:00+32ssw11395 0.0 100219
22:00+30sw22475 0.0 100530
24 april, sat
sat2401:00+29ssw11546 0.0 100418
04:00+27ssw116210 0.0 100421
07:00+28ssw126598 0.0 1007131
10:00+34ssw2344100 0.0 10081285
13:00+39s223055 0.0 10042544
16:00+40sse432450 0.0 10013240
19:00+33sw224098 0.0 100349
22:00+32sw114479 0.0 100616
25 april, sun
sun2501:00+30sw2252100 0.0 100533
04:00+27sse116987 1.3 100521
07:00+28ssw126899 1.3 100894
10:00+34ssw2246100 0.0 10091107
13:00+39s223284 0.0 10052297
16:00+39ssw222851 0.0 10012873
19:00+27wnw3669100 1.5 1007269
22:00+25wnw1380100 1.8 1010107
26 april, mon
mon2601:00+25w237987 2.3 1008127
04:00+24n1281100 0.0 100879
07:00+25s017777 0.1 1009135
10:00+32wsw115163 0.0 1010864
13:00+37ssw223764 0.0 10071742
16:00+38s223318 0.0 10032235
19:00+33ssw3647100 0.0 1005219
22:00+29e1166100 2.6 100823
27 april, tue
tue2701:00+26sw1381100 6.4 1008109
04:00+24s1288100 6.4 100882
07:00+25ene1286100 8.6 1010188
10:00+28ene2370100 0.3 1012692
13:00+32ese235496 0.6 10091291
16:00+25ssw2288100 5.1 1008190
19:00+24ssw4987100 10.1 1010336
22:00+24s1391100 1.8 1013178